(173835) = 2001 TC91 = 2004 ED23

Discovered at Socorro on 2001-10-14 by LINEAR.

Orbit

Orbit type: Main Belt

Note: WebGL enabled browser required.

epoch2024-03-31.0
epoch JD2460400.5
perihelion date2026-09-01.45302
perihelion JD2461284.95302
argument of perihelion (°)211.30731
ascending node (°)1.75586
inclination (°)8.77734
eccentricity0.0188484
perihelion distance (AU)3.0599913
Tisserand w.r.t. Jupiter3.2
ΔV w.r.t. Earth (km/sec)11.1
semimajor axis (AU)3.1187753
mean anomaly (°)201.72859
mean daily motion (°/day)0.17894840
aphelion distance (AU)3.178
period (years)5.51
P-vector [x]-0.83825600
P-vector [y]-0.46342315
P-vector [z]-0.28734276
Q-vector [x]0.54525684
Q-vector [y]-0.70787716
Q-vector [z]-0.44900434
absolute magnitude15.05
phase slope0.15
uncertainty0
referenceMPEC 2024-C37
observations used795
oppositions16
arc length (days)8148
first opposition used2001
last opposition used2024
residual rms (arc-secs)0.76
perturbers coarse indicatorM-v
perturbers precise indicator003Ek
first observation date used2001-09-20.0
last observation date used2024-01-11.0
computer nameMPCLINUX
JD of orbit computation2456670.838926
perihelion JD uncertainty (days)6.6773E-04
argument of perihelion uncertainty (°)1.1995E-04
ascending node uncertainty (°)3.2447E-05
inclination uncertainty (°)7.5190E-06
eccentricity uncertainty 6.7808E-08
perihelion distance uncertainty (AU)2.1252E-07
Minimum Orbit Intersection Distances (in AU)
for orbit epoch: 2460200.5, reference: E2024-C37
Mercury2.60328
Venus2.33833
Earth2.05264
Mars1.40748
Jupiter1.78563
Saturn5.97431
Uranus15.3756
Neptune26.6753

Observations

816 total observations over interval: 2001 09 20.32926 – 2024 01 11.087544
These data are available for download (format description).

Date (UT) J2000 RA J2000 Dec Magn Location Ref
2001 09 20.32926 01 31 55.93 +13 05 21.4 19.9   704 – Lincoln Laboratory ETS, New Mexico MPS 44235
2001 09 20.34736 01 31 55.19 +13 05 20.4 19.7   704 – Lincoln Laboratory ETS, New Mexico MPS 44235
2001 09 20.36155 01 31 54.58 +13 05 19.6 20.0   704 – Lincoln Laboratory ETS, New Mexico MPS 44235
2001 09 20.37574 01 31 54.06 +13 05 19.2 19.6   704 – Lincoln Laboratory ETS, New Mexico MPS 44235
2001 09 24.33976 01 29 16.24 +13 01 19.3 19.8   704 – Lincoln Laboratory ETS, New Mexico MPS 40851
2001 09 24.35437 01 29 15.62 +13 01 17.2 20.4   704 – Lincoln Laboratory ETS, New Mexico MPS 40851
2001 09 24.36898 01 29 14.99 +13 01 17.3 20.1   704 – Lincoln Laboratory ETS, New Mexico MPS 40851
2001 09 24.38361 01 29 14.42 +13 01 15.9 20.2   704 – Lincoln Laboratory ETS, New Mexico MPS 40851
2001 09 24.39824 01 29 13.75 +13 01 14.3 20.4   704 – Lincoln Laboratory ETS, New Mexico MPS 40851
2001 10 12.25975 01 15 17.03 +12 25 55.5 19.1 R 699 – Lowell Observatory-LONEOS MPS 44235
2001 10 12.28310 01 15 15.93 +12 25 52.2   699 – Lowell Observatory-LONEOS MPS 44235
2001 10 12.30650 01 15 14.49 +12 25 47.7   699 – Lowell Observatory-LONEOS MPS 44235
2001 10 12.33002 01 15 13.41 +12 25 44.0   699 – Lowell Observatory-LONEOS MPS 44235
2001 10 14.24764 01 13 37.97 +12 20 40.3 19.7   704 – Lincoln Laboratory ETS, New Mexico MPS 39494
2001 10 14.26334 01 13 37.13 +12 20 36.8 20.3   704 – Lincoln Laboratory ETS, New Mexico MPS 39494
2001 10 14.27902 01 13 36.32 +12 20 36.4 20.4   704 – Lincoln Laboratory ETS, New Mexico MPS 39494
2001 10 14.29521 01 13 35.50 +12 20 32.0 20.1   704 – Lincoln Laboratory ETS, New Mexico MPS 39494
2001 10 14.31086 01 13 34.69 +12 20 31.3 20.2   704 – Lincoln Laboratory ETS, New Mexico MPS 39494
2001 10 17.26213 01 11 08.13 +12 12 21.8 20.3   704 – Lincoln Laboratory ETS, New Mexico MPS 39494
2001 10 17.27810 01 11 07.38 +12 12 19.3 20.0   704 – Lincoln Laboratory ETS, New Mexico MPS 39494
2001 10 17.29408 01 11 06.48 +12 12 16.4 19.8   704 – Lincoln Laboratory ETS, New Mexico MPS 39494
2001 10 17.31042 01 11 05.61 +12 12 14.8 20.1   704 – Lincoln Laboratory ETS, New Mexico MPS 39494
2001 10 18.23443 01 10 20.19 +12 09 37.9 19.5   704 – Lincoln Laboratory ETS, New Mexico MPS 44235
2001 10 18.25034 01 10 19.44 +12 09 35.5 19.8   704 – Lincoln Laboratory ETS, New Mexico MPS 44235
2001 10 18.26625 01 10 18.61 +12 09 31.8 19.9   704 – Lincoln Laboratory ETS, New Mexico MPS 44235
2001 10 18.28217 01 10 17.90 +12 09 28.0 20.3   704 – Lincoln Laboratory ETS, New Mexico MPS 44235
2001 10 18.29806 01 10 17.01 +12 09 27.2 19.9   704 – Lincoln Laboratory ETS, New Mexico MPS 44235
2001 10 19.28916 01 09 28.43 +12 06 38.3 19.3   644 – Palomar Mountain/NEAT MPS 40851
2001 10 19.30965 01 09 27.39 +12 06 34.7 19.3   644 – Palomar Mountain/NEAT MPS 40851
2001 10 19.33074 01 09 26.32 +12 06 31.1 19.5   644 – Palomar Mountain/NEAT MPS 40851
2001 10 20.23962 01 08 42.08 +12 03 55.9 19.6   704 – Lincoln Laboratory ETS, New Mexico MPS 40851
2001 10 20.25594 01 08 41.17 +12 03 53.0 19.9   704 – Lincoln Laboratory ETS, New Mexico MPS 40851
2001 10 20.30538 01 08 38.71 +12 03 44.6 19.8   704 – Lincoln Laboratory ETS, New Mexico MPS 40851
2001 10 21.24372 01 07 53.31 +12 01 00.6 19.8   704 – Lincoln Laboratory ETS, New Mexico MPS 40851
2001 10 21.24652 01 07 53.32 +12 01 01.4 19.2   704 – Lincoln Laboratory ETS, New Mexico MPS 40851
2001 10 21.27024 01 07 52.14 +12 00 58.2 19.5   704 – Lincoln Laboratory ETS, New Mexico MPS 40851
2001 10 21.27305 01 07 52.02 +12 00 56.9 19.3   704 – Lincoln Laboratory ETS, New Mexico MPS 40851
2001 10 21.28770 01 07 51.26 +12 00 54.1 19.3   704 – Lincoln Laboratory ETS, New Mexico MPS 40851
2001 10 21.29068 01 07 51.13 +12 00 54.3 19.5   704 – Lincoln Laboratory ETS, New Mexico MPS 40851
2001 10 21.30430 01 07 50.40 +12 00 52.1 19.6   704 – Lincoln Laboratory ETS, New Mexico MPS 40851
2001 10 21.30711 01 07 50.31 +12 00 51.0 19.8   704 – Lincoln Laboratory ETS, New Mexico MPS 40851
2001 10 21.32074 01 07 49.63 +12 00 49.5 20.0   704 – Lincoln Laboratory ETS, New Mexico MPS 40851
2001 10 21.32373 01 07 49.53 +12 00 47.5 19.3   704 – Lincoln Laboratory ETS, New Mexico MPS 40851
2001 10 26.22613 01 03 59.17 +11 46 36.7 19.3 R 644 – Palomar Mountain/NEAT MPS 231719
2001 10 26.24756 01 03 58.16 +11 46 33.2 19.6 R 644 – Palomar Mountain/NEAT MPS 231719
2001 10 26.26907 01 03 57.14 +11 46 29.4 19.8 R 644 – Palomar Mountain/NEAT MPS 231719
2004 02 26.40792 12 15 21.59 +00 02 54.2 19.3 R 695 – Kitt Peak MPS 101315
2004 02 26.48487 12 15 18.60 +00 03 01.9   695 – Kitt Peak MPS 101315
2004 03 15.30757 12 02 06.79 +00 42 20.7 18.9 V 703 – Catalina Sky Survey MPS 101315
2004 03 15.32123 12 02 06.06 +00 42 23.3 18.9 V 703 – Catalina Sky Survey MPS 101315
2004 03 15.33490 12 02 05.36 +00 42 25.0 19.6 V 703 – Catalina Sky Survey MPS 101315
2004 03 15.34866 12 02 04.70 +00 42 27.4 19.9 V 703 – Catalina Sky Survey MPS 101315
2004 03 16.28547 12 01 18.51 +00 44 51.3 18.7   704 – Lincoln Laboratory ETS, New Mexico MPS 101315
2004 03 16.29706 12 01 17.93 +00 44 52.8 19.5   704 – Lincoln Laboratory ETS, New Mexico MPS 101315
2004 03 16.30900 12 01 17.35 +00 44 54.6 19.9   704 – Lincoln Laboratory ETS, New Mexico MPS 101315
2004 03 16.32035 12 01 16.69 +00 44 56.6 19.7   704 – Lincoln Laboratory ETS, New Mexico MPS 101315
2004 03 16.33163 12 01 16.17 +00 44 57.9 19.5   704 – Lincoln Laboratory ETS, New Mexico MPS 101315
2004 03 16.96535 12 00 44.74 +00 46 36.3 18.9 R 599 – Campo Imperatore-CINEOS MPS 101315
2004 03 16.97618 12 00 44.20 +00 46 38.0 18.7 R 599 – Campo Imperatore-CINEOS MPS 101315
2004 03 16.98539 12 00 43.72 +00 46 39.6 18.5 R 599 – Campo Imperatore-CINEOS MPS 101315
2004 03 16.99616 12 00 43.16 +00 46 41.1 18.4 R 599 – Campo Imperatore-CINEOS MPS 101315
2004 03 17.22133 12 00 32.15 +00 47 16.5 19.2 V 691 – Steward Observatory, Kitt Peak-Spacewatch MPS 101315
2004 03 17.25120 12 00 30.63 +00 47 21.2 19.3 V 691 – Steward Observatory, Kitt Peak-Spacewatch MPS 101315
2004 03 17.28013 12 00 29.14 +00 47 25.6 19.6 V 691 – Steward Observatory, Kitt Peak-Spacewatch MPS 101315
2004 03 18.34037 11 59 36.27 +00 50 10.9 19.4   704 – Lincoln Laboratory ETS, New Mexico MPS 101315
2004 03 18.35179 11 59 35.67 +00 50 12.2 20.0   704 – Lincoln Laboratory ETS, New Mexico MPS 101315
2004 03 18.36291 11 59 35.12 +00 50 13.7 19.8   704 – Lincoln Laboratory ETS, New Mexico MPS 101315
2004 03 18.37988 11 59 34.24 +00 50 17.0 19.7   704 – Lincoln Laboratory ETS, New Mexico MPS 101315
2004 03 19.28770 11 58 49.06 +00 52 37.9 19.4   704 – Lincoln Laboratory ETS, New Mexico MPS 101315
2004 03 19.29897 11 58 48.47 +00 52 39.2 19.7   704 – Lincoln Laboratory ETS, New Mexico MPS 101315
2004 03 19.31034 11 58 47.90 +00 52 40.8 19.3   704 – Lincoln Laboratory ETS, New Mexico MPS 101315
2004 03 19.32151 11 58 47.33 +00 52 42.7 19.6   704 – Lincoln Laboratory ETS, New Mexico MPS 101315
2004 03 19.33277 11 58 46.71 +00 52 44.7 19.6   704 – Lincoln Laboratory ETS, New Mexico MPS 101315
2004 03 20.24813 11 58 01.11 +00 55 06.8 18.8 R 699 – Lowell Observatory-LONEOS MPS 103884
2004 03 20.27341 11 57 59.84 +00 55 10.1   699 – Lowell Observatory-LONEOS MPS 103884
2004 03 20.27842 11 57 59.58 +00 55 11.5 18.7   704 – Lincoln Laboratory ETS, New Mexico MPS 102296
2004 03 20.28933 11 57 59.01 +00 55 13.0 19.2   704 – Lincoln Laboratory ETS, New Mexico MPS 102296
2004 03 20.29872 11 57 58.51 +00 55 14.5   699 – Lowell Observatory-LONEOS MPS 103884
2004 03 20.30022 11 57 58.46 +00 55 15.0 19.5   704 – Lincoln Laboratory ETS, New Mexico MPS 102296
2004 03 20.31146 11 57 57.89 +00 55 16.8 19.5   704 – Lincoln Laboratory ETS, New Mexico MPS 102296
2004 03 20.32409 11 57 57.21 +00 55 19.1   699 – Lowell Observatory-LONEOS MPS 103884
2004 03 20.32465 11 57 57.20 +00 55 18.3 19.4   704 – Lincoln Laboratory ETS, New Mexico MPS 102296
2004 03 21.33079 11 57 06.84 +00 57 53.9 18.7 C 704 – Lincoln Laboratory ETS, New Mexico MPS 294291
2004 03 21.34301 11 57 06.21 +00 57 56.5 19.1 C 704 – Lincoln Laboratory ETS, New Mexico MPS 294291
2004 03 21.35444 11 57 05.65 +00 57 58.4 19.3 C 704 – Lincoln Laboratory ETS, New Mexico MPS 294291
